Terminal Aerodrome Forecast
Issued by NWS Raleigh/Durham, NC

Home | Current Version | Previous Version | Text Only | Print | Product List | Glossary On
Versions: 1 2 3 4 5 6 7 8 9 10 11 12 13 14 15 16 17 18 19 20 21 22 23 24 25 26 27 28 29 30 31 32 33 34 35 36 37 38 39 40 41 42 43 44 45 46 47 48 49 50
000
FTUS42 KRAH 060247 AAE
TAFRDU
TAF AMD
KRDU 060247Z 0603/0624 03011G17KT P6SM SCT015 OVC050
      TEMPO 0603/0606 5SM -SN BR BKN015
     FM061200 03011KT P6SM FEW020=

USA.gov is the U.S. government's official web portal to all federal, state and local government web resources and services.